Weather reports worldwide

Advertisment
Don Benito, Spain (8333): temperature & dewpoint: 18.01.2020 03:00:00 - 24.01.2020 03:00:00 (CET)Don Benito, Spain (8333): wind speed & gusts: 18.01.2020 03:00:00 - 24.01.2020 03:00:00 (CET)Don Benito, Spain (8333): wind direction: 18.01.2020 03:00:00 - 24.01.2020 03:00:00 (CET)Don Benito, Spain (8333): reduced air pressure: 18.01.2020 03:00:00 - 24.01.2020 03:00:00 (CET)Don Benito, Spain (8333): visibility: 18.01.2020 03:00:00 - 24.01.2020 03:00:00 (CET)Don Benito, Spain (8333): sunshine duration: 18.01.2020 03:00:00 - 24.01.2020 03:00:00 (CET)Don Benito, Spain (8333): precipitation: 18.01.2020 03:00:00 - 24.01.2020 03:00:00 (CET)
Date & Time tt [°C] td [°C] ff [km/h] ff [kn] fx [km/h] fx [kn] dd ppp [hPa] vv [km] sd [min] rr [mm]
24.01.2020 03:00:00 - - - - - - - - - - -
24.01.2020 02:00:00 8,7 7,6 5 3 18 10 ENE 1018,9 20 0 0,2
24.01.2020 01:00:00 8,9 7,7 8 4 19 10 E 1019,2 20 0 -
24.01.2020 00:00:00 9,2 7,7 6 3 19 10 E 1019,0 19 0 0,2
23.01.2020 23:00:00 9,3 7,4 9 5 18 10 ESE 1018,7 13 0 0,4
23.01.2020 22:00:00 9,5 7,4 9 5 23 12 ESE 1018,3 15 0 0,0
23.01.2020 21:00:00 9,2 7,3 8 5 25 14 SSE 1018,1 20 0 0,0
23.01.2020 20:00:00 9,4 7,1 12 7 26 14 ESE 1017,3 20 0 0,4
23.01.2020 19:00:00 9,8 7,0 11 6 24 13 SE 1016,9 17 0 -
23.01.2020 18:00:00 10,3 7,8 9 5 22 12 SE 1016,4 19 0 0,4
23.01.2020 17:00:00 10,8 7,3 12 7 24 13 ESE 1016,0 16 0 0,2
23.01.2020 16:00:00 10,8 7,4 11 6 23 13 ESE 1015,9 19 0 0,2
23.01.2020 15:00:00 10,7 7,4 14 7 27 15 SE 1016,1 14 0 0,2
23.01.2020 14:00:00 10,9 7,6 10 6 24 13 SE 1016,6 14 0 0,0
23.01.2020 13:00:00 10,4 6,7 10 6 21 11 E 1017,1 20 0 -
23.01.2020 12:00:00 9,8 6,5 9 5 25 13 ESE 1017,6 20 0 0,0
23.01.2020 11:00:00 9,3 6,1 11 6 28 15 ESE 1017,2 20 0 0,0
23.01.2020 10:00:00 8,9 5,6 12 6 23 12 ESE 1017,0 20 0 0,0
23.01.2020 09:00:00 8,8 5,8 11 6 22 12 ESE 1016,5 20 0 0,0
23.01.2020 08:00:00 8,8 5,9 13 7 28 15 ESE 1016,0 20 0 0,2
23.01.2020 07:00:00 8,4 6,4 10 5 18 10 E 1015,8 11 0 -
23.01.2020 06:00:00 8,1 6,4 8 4 16 9 E 1015,8 14 0 0,0
23.01.2020 05:00:00 8,0 6,2 7 4 14 7 E 1016,1 20 0 0,2
23.01.2020 04:00:00 8,0 6,1 5 3 13 7 E 1016,4 9 0 0,2
23.01.2020 03:00:00 8,1 5,9 3 2 9 5 E 1016,4 11 0 0,2
23.01.2020 02:00:00 8,6 5,3 6 3 16 9 SE 1016,7 13 0 0,2
23.01.2020 01:00:00 8,9 5,0 7 4 19 10 E 1016,8 20 0 -
23.01.2020 00:00:00 8,5 5,1 6 4 14 7 E 1016,7 20 0 0,0
22.01.2020 23:00:00 9,0 5,0 6 4 14 8 E 1016,3 20 0 0,0
22.01.2020 22:00:00 8,1 5,1 6 3 14 7 SE 1016,4 20 0 0,0
22.01.2020 21:00:00 8,3 5,3 5 3 14 8 SE 1016,1 20 0 0,0
22.01.2020 20:00:00 9,7 6,1 6 3 11 6 E 1015,5 20 0 0,0
22.01.2020 19:00:00 10,3 6,2 4 2 11 6 E 1015,1 20 0 -
22.01.2020 18:00:00 11,0 6,4 7 4 14 7 ENE 1015,0 20 0 0,0
22.01.2020 17:00:00 11,7 5,9 5 3 16 9 ENE 1014,9 20 9 0,0
22.01.2020 16:00:00 10,9 6,1 5 3 18 10 ENE 1015,3 20 0 0,0
22.01.2020 15:00:00 10,1 6,1 9 5 19 10 ENE 1015,9 20 0 0,0
22.01.2020 14:00:00 9,0 6,5 5 3 17 9 ENE 1016,6 20 0 0,0
22.01.2020 13:00:00 8,0 6,1 9 5 19 10 ENE 1017,5 14 0 -
22.01.2020 12:00:00 7,5 6,1 8 4 22 12 ENE 1017,8 17 0 0,6
22.01.2020 11:00:00 7,2 5,8 9 5 23 12 ENE 1017,6 7 0 1,0
22.01.2020 10:00:00 7,1 5,8 9 5 19 11 E 1017,1 12 0 0,2
22.01.2020 09:00:00 6,9 5,3 9 5 22 12 E 1016,6 14 0 0,4
22.01.2020 08:00:00 6,8 5,0 8 4 26 14 E 1016,2 10 0 0,0
22.01.2020 07:00:00 6,8 4,8 12 6 24 13 E 1015,8 9 0 -
22.01.2020 06:00:00 7,1 4,3 10 6 23 12 E 1015,7 8 0 0,0
22.01.2020 05:00:00 7,8 3,0 9 5 20 11 E 1015,8 20 0 0,0
22.01.2020 04:00:00 7,5 2,9 7 4 16 8 ENE 1016,1 20 0 0,0
22.01.2020 03:00:00 7,1 2,5 2 1 15 8 NNE 1016,4 20 0 0,0
22.01.2020 02:00:00 7,1 2,5 8 5 25 14 NE 1016,5 20 0 0,0
22.01.2020 01:00:00 7,6 2,5 9 5 29 16 NE 1016,3 20 0 -
22.01.2020 00:00:00 8,5 2,3 15 8 30 16 ENE 1015,9 20 0 0,0
21.01.2020 23:00:00 8,8 2,3 17 9 31 17 NE 1015,7 20 0 0,0
21.01.2020 22:00:00 9,2 2,3 9 5 22 12 NE 1015,2 20 0 0,0
21.01.2020 21:00:00 9,9 1,7 10 6 20 11 NE 1015,2 20 0 0,0
21.01.2020 20:00:00 10,1 1,7 5 3 18 10 NE 1015,1 20 0 0,0
21.01.2020 19:00:00 10,4 1,3 9 5 22 12 NE 1014,5 20 0 -
21.01.2020 18:00:00 10,4 1,3 4 2 32 17 NNE 1014,2 20 0 0,0
21.01.2020 17:00:00 10,9 1,5 10 6 30 16 NE 1014,1 20 0 0,0
21.01.2020 16:00:00 11,2 1,1 11 6 32 18 ENE 1013,9 20 17 0,0
21.01.2020 15:00:00 11,3 1,1 17 9 40 21 NE 1014,6 20 18 0,0
21.01.2020 14:00:00 11,1 0,4 19 10 36 19 ENE 1015,5 20 0 0,0
21.01.2020 13:00:00 10,5 1,1 9 5 32 17 N 1016,4 20 27 -
21.01.2020 12:00:00 9,9 -0,3 16 9 35 19 ENE 1016,9 20 54 0,0
21.01.2020 11:00:00 8,6 -0,5 4 2 18 10 NE 1018,0 20 56 0,0
21.01.2020 10:00:00 6,4 -0,5 8 5 22 12 NE 1018,3 20 38 0,0
21.01.2020 09:00:00 5,1 -0,7 3 2 18 10 NW 1018,4 20 0 0,0
21.01.2020 08:00:00 6,2 -1,0 9 5 25 14 ENE 1018,4 20 0 0,0
21.01.2020 07:00:00 6,6 -1,2 11 6 23 12 NE 1018,2 20 0 -
21.01.2020 06:00:00 6,9 -1,2 10 5 24 13 NE 1018,6 20 0 0,0
21.01.2020 05:00:00 6,8 -1,7 9 5 26 14 NE 1018,6 20 0 0,0
21.01.2020 04:00:00 7,1 -1,7 11 6 38 21 ENE 1019,0 20 0 0,0
21.01.2020 03:00:00 7,0 -1,7 10 6 28 15 ENE 1019,7 20 0 0,0
21.01.2020 02:00:00 6,9 -1,2 9 5 29 16 NE 1019,9 20 0 0,0
21.01.2020 01:00:00 7,4 -2,0 16 9 36 19 NE 1020,2 20 0 -
21.01.2020 00:00:00 7,8 -2,0 12 6 34 18 E 1020,5 20 0 0,0
20.01.2020 23:00:00 6,0 -1,7 5 3 24 13 SE 1020,5 20 0 0,0
20.01.2020 22:00:00 7,2 -2,5 10 5 25 14 ENE 1020,1 20 0 0,0
20.01.2020 21:00:00 7,1 -2,2 10 5 22 12 ENE 1020,1 20 0 0,0
20.01.2020 20:00:00 7,0 -2,0 9 5 26 14 NE 1020,1 20 0 0,0
20.01.2020 19:00:00 7,3 -2,0 14 8 34 18 ENE 1019,7 20 0 -
20.01.2020 18:00:00 7,0 -1,4 17 9 46 25 ENE 1019,5 20 18 0,0
20.01.2020 17:00:00 6,7 -1,2 24 13 61 33 NE 1019,6 20 0 0,0
20.01.2020 16:00:00 7,8 -2,2 17 9 49 26 NE 1019,5 20 7 0,0
20.01.2020 15:00:00 7,8 -3,0 17 9 45 25 NE 1020,0 20 29 0,0
20.01.2020 14:00:00 8,1 -3,0 19 11 51 27 ENE 1020,6 20 15 0,0
20.01.2020 13:00:00 8,4 -4,5 21 11 51 28 ENE 1021,0 20 20 -
20.01.2020 12:00:00 8,9 -7,1 16 9 44 24 ENE 1021,6 20 49 0,0
20.01.2020 11:00:00 8,4 -7,8 12 7 31 17 NE 1021,2 20 57 0,0
20.01.2020 10:00:00 6,8 -9,0 10 5 38 20 NE 1021,4 20 33 0,0
20.01.2020 09:00:00 6,2 -10,8 14 7 30 16 NE 1021,5 20 0 0,0
20.01.2020 08:00:00 6,2 -9,9 13 7 33 18 NE 1021,4 20 0 0,0
20.01.2020 07:00:00 6,9 -9,4 15 8 36 19 ENE 1021,4 20 0 -
20.01.2020 06:00:00 7,0 -9,4 13 7 31 17 ENE 1021,8 20 0 0,0
20.01.2020 05:00:00 7,1 -8,2 6 3 27 15 ENE 1022,4 20 0 0,0
20.01.2020 04:00:00 7,3 -8,2 13 7 26 14 NE 1022,6 20 0 0,0
20.01.2020 03:00:00 7,0 -7,1 8 4 33 18 NE 1023,2 20 0 0,0
20.01.2020 02:00:00 7,3 -7,8 14 8 31 17 NE 1023,6 20 0 0,0
20.01.2020 01:00:00 7,7 -7,5 14 8 34 19 NE 1023,7 20 0 -
20.01.2020 00:00:00 8,5 -8,2 18 10 46 25 NE 1024,0 20 0 0,0
19.01.2020 23:00:00 9,5 -8,6 20 11 42 23 NE 1023,1 20 0 0,0
19.01.2020 22:00:00 10,3 -8,2 21 11 41 22 NE 1022,6 20 0 0,0
19.01.2020 21:00:00 10,7 -5,7 11 6 29 16 NE 1022,0 20 0 0,0
19.01.2020 20:00:00 11,0 -5,4 10 5 23 13 NE 1021,7 20 0 0,0
19.01.2020 19:00:00 11,5 -5,4 11 6 26 14 NE 1021,3 20 0 -
19.01.2020 18:00:00 11,8 0,6 6 3 19 10 NNE 1020,7 20 0 0,0
19.01.2020 17:00:00 12,7 -0,3 5 3 16 9 N 1020,7 20 0 0,0
19.01.2020 16:00:00 12,7 0,6 9 5 31 17 NNE 1020,9 20 8 0,0
19.01.2020 15:00:00 13,1 0,4 11 6 35 19 NNE 1020,5 20 14 0,0
19.01.2020 14:00:00 14,3 1,9 16 9 39 21 N 1020,5 20 60 0,0
19.01.2020 13:00:00 12,9 4,1 15 8 28 15 N 1021,6 20 60 -
19.01.2020 12:00:00 11,6 3,8 10 6 24 13 NNW 1022,4 20 56 0,0
19.01.2020 11:00:00 10,0 6,5 4 2 10 5 W 1022,8 20 58 0,0
19.01.2020 10:00:00 7,5 6,4 5 3 10 5 WSW 1022,7 17 60 0,0
19.01.2020 09:00:00 5,5 4,5 4 2 13 7 S 1022,8 4,6 2 0,0
19.01.2020 08:00:00 6,2 5,3 7 4 18 10 WSW 1022,3 9 0 0,0
19.01.2020 07:00:00 6,4 5,3 6 3 20 11 SSW 1022,3 8 0 -
19.01.2020 06:00:00 6,8 5,5 8 4 22 12 W 1022,2 11 0 0,0
19.01.2020 05:00:00 7,4 5,6 10 5 24 13 W 1022,3 15 0 0,0
19.01.2020 04:00:00 8,1 6,1 9 5 20 11 W 1023,2 18 0 0,0
19.01.2020 03:00:00 8,4 6,7 7 4 21 11 W 1023,1 20 0 0,0
19.01.2020 02:00:00 9,1 7,4 7 4 19 10 W 1023,5 20 0 0,0
19.01.2020 01:00:00 10,2 8,0 6 3 35 19 W 1023,7 20 0 -
19.01.2020 00:00:00 10,7 8,3 14 8 33 18 W 1023,7 20 0 0,0
18.01.2020 23:00:00 11,7 9,0 10 6 31 17 W 1024,1 20 0 0,0
18.01.2020 22:00:00 12,2 9,6 12 7 39 21 W 1024,3 20 0 0,0
18.01.2020 21:00:00 13,1 10,3 15 8 31 17 W 1023,6 20 0 0,0
18.01.2020 20:00:00 12,8 10,5 12 7 24 13 WSW 1023,4 20 0 0,0
18.01.2020 19:00:00 13,8 12,3 13 7 26 14 WSW 1023,4 20 11 -
18.01.2020 18:00:00 14,2 12,7 5 3 16 9 SSW 1023,9 20 23 0,0
18.01.2020 17:00:00 14,0 12,5 2 1 11 6 SW 1024,5 20 5 0,0
18.01.2020 16:00:00 13,6 12,5 3 2 8 5 WNW 1025,3 20 3 0,0
18.01.2020 15:00:00 12,7 11,9 3 2 10 5 NNW 1026,2 20 0 0,2
18.01.2020 14:00:00 12,1 11,3 5 3 10 6 N 1026,9 2,0 0 0,4
18.01.2020 13:00:00 12,0 11,2 3 2 16 9 ENE 1027,7 2,0 0 -
18.01.2020 12:00:00 11,1 10,2 8 4 21 11 SE 1029,0 9 0 0,6
18.01.2020 11:00:00 10,5 9,4 10 5 21 11 ESE 1029,5 1,9 0 1,6
18.01.2020 10:00:00 10,5 8,8 8 5 19 10 ESE 1029,1 5 0 0,8
18.01.2020 09:00:00 10,1 8,7 6 3 12 7 ENE 1029,6 12 0 0,2
18.01.2020 08:00:00 9,8 8,4 5 3 10 6 E 1029,4 20 0 0,6
18.01.2020 07:00:00 9,9 8,0 4 2 9 5 ESE 1029,6 14 0 -
18.01.2020 06:00:00 9,3 7,7 3 2 8 5 NE 1029,7 19 0 0,0
18.01.2020 05:00:00 10,7 7,0 4 2 11 6 ESE 1029,5 20 0 0,0
18.01.2020 04:00:00 9,4 7,3 3 1 8 4 NNE 1030,7 15 0 0,0
18.01.2020 03:00:00 9,8 7,0 4 2 11 6 SSE 1031,1 20 0 0,0

tt = temperature
td = dewpoint
ff = wind speed
fx = gusts
dd = wind direction
ppp = reduced air pressure
vv = visibility
sd = sunshine duration
rr = precipitation

Next stations